DECAYED

STARLINK-1697, 46546 (Decayed)

Orbit data source: Space-Track

STARLINK-1697, 46546 was a payload satellite owned by SpaceX/Seattle (US) in LEO that was launched on Tue, 06 Oct 2020 UTC via an FALCON 9 launch vehicle from the Air Force Eastern Test Range (AFETR). Payload-class satellites include a variety of spacecraft equipped with specific instruments for various scientific and technological missions. These include communications satellites like Starlink; space stations such as the ISS; scientific satellites like the Hubble; Earth observation satellites from companies like Planet Labs, Umbra, and HawkEye 360; GPS; miniature CubeSats for education and research; and military/defense satellites.

Not visible in the next 10 days
Identifier
46546, 2020-070Q
Orbit
Decayed
Country
Flag of USUS
Related business
Manufacturer
SpaceX/Seattle
Mission
Decayed Commercial Communications
Bus & Motor
STARLINK, Unknown motor
Mass
260 kg wet, ~248 kg dry
Launch date (UTC)
2020-10-06 (5 years ago)
Launch vehicle
FALCON 9
Launch site
Air Force Eastern Test Range (AFETR)
Object type
Payload
Rocket body
Debris
Shape & HBR
Box + 1 Pan, 10.1 m
Radar Cross Section
13.562 m², Large (>1 m²)

Expand to show TLE details & history
Last TLE update: 7 months ago

TLE from 7 months ago
0 STARLINK-1697
1 46546U 20070Q   25095.75456251  .07598140  12239-4  12494-2 0  9997
2 46546  53.0272 200.6828 0009908 309.4239 130.8056 16.32511540249004
Epoch: 2025-04-05T18:06Z
TLE epoch observation values (Epoch: 2025-04-05T18:06:34.200Z)
Latitude
52.11307°
Longitude
168.88684°
Altitude
196.292 km
Speed
7.793 km/s
True Right ascension
18h 19m 17s
True Declination
51° 55' 55"
Sunlit
Object was in daylight at epoch
Visualization orbit readout
Latitude
Unknown
Longitude
Unknown
Altitude
Unknown
Speed
Unknown
Apparent Right ascension
Unknown
Apparent Declination
Unknown
Sunlit
N/A
Visualization observer readout
Local Sidereal Time
09:42:21
Azimuth
Unknown
Elevation
Unknown
Doppler factor
Unknown
Orbital elements
Apogee altitude
192.593 km
Perigee altitude
179.585 km
Semi-major axis
6,564.226 km
Eccentricity
0.00099
Inclination
53.0272°
RAAN
200.6828°
Arg. of periapsis
309.4239°
True anomaly
130.89147°
Mean anomaly
130.8056°
Eccentric anomaly
130.84854°
Mean motion
4.08101 °/min
Orbital period
88.21 mins
BSTAR
0.0012494
Loading maneuver chart data...
Computing Atmospheric mass density...

Documentation

Showing up to 5 results
|